Location: *
(43.4667°N, 11.6833°E)
Time: 19:47:57
(UTC+00:00)

ARGOS - Pass Details

Date: 19 July 2019
Orbit: 819 x 835 km, 98.5° (Epoch: 23 August)

Event Time Altitude Azimuth Distance (km) Brightness Sun altitude
Rises 19:39:28 0° 175° (S) 3,367 5.9 -8.3°
Reaches altitude 10° 19:41:52 10° 179° (S) 2,436 5.2 -8.7°
Maximum altitude 19:47:11 60° 259° (W) 954 3.7 -9.4°
Drops below altitude 10° 19:52:33 10° 339° (NNW) 2,445 6.7 -10.1°
Sets 19:54:57 0° 343° (NNW) 3,380 7.4 -10.4°
